TimePDT,TemperatureF,Dew PointF,Humidity,Sea Level PressureIn,VisibilityMPH,Wind Direction,Wind SpeedMPH,Gust SpeedMPH,PrecipitationIn,Events,Conditions,WindDirDegrees,DateUTC
12:53 AM,53.1,39.9,61,30.20,10.0,South,11.5,-,N/A,,Clear,180,2013-05-31 07:53:00
1:53 AM,51.1,39.0,63,30.21,10.0,South,11.5,-,N/A,,Clear,190,2013-05-31 08:53:00
2:53 AM,50.0,39.9,68,30.22,10.0,South,9.2,-,N/A,,Clear,190,2013-05-31 09:53:00
3:53 AM,48.9,39.9,71,30.23,10.0,South,6.9,-,N/A,,Scattered Clouds,190,2013-05-31 10:53:00
4:53 AM,48.0,39.0,71,30.25,10.0,South,6.9,-,N/A,,Clear,180,2013-05-31 11:53:00
5:53 AM,48.9,39.9,71,30.26,10.0,South,5.8,-,N/A,,Clear,180,2013-05-31 12:53:00
6:53 AM,53.1,41.0,64,30.27,10.0,SSW,5.8,-,N/A,,Clear,200,2013-05-31 13:53:00
7:53 AM,55.0,39.9,57,30.29,10.0,SSW,10.4,-,N/A,,Clear,210,2013-05-31 14:53:00
8:53 AM,57.0,39.9,53,30.30,10.0,SSW,11.5,-,N/A,,Clear,200,2013-05-31 15:53:00
9:53 AM,60.1,41.0,49,30.30,10.0,SW,10.4,-,N/A,,Clear,230,2013-05-31 16:53:00
10:53 AM,61.0,41.0,48,30.30,10.0,SSW,4.6,-,N/A,,Clear,200,2013-05-31 17:53:00
11:53 AM,64.0,39.9,41,30.29,10.0,Variable,4.6,-,N/A,,Clear,0,2013-05-31 18:53:00
12:53 PM,66.0,39.0,37,30.27,10.0,Variable,5.8,-,N/A,,Partly Cloudy,0,2013-05-31 19:53:00
1:53 PM,68.0,37.9,33,30.26,10.0,SSE,4.6,-,N/A,,Clear,150,2013-05-31 20:53:00
2:53 PM,69.1,37.9,32,30.24,10.0,NNW,5.8,-,N/A,,Clear,330,2013-05-31 21:53:00
3:53 PM,70.0,37.0,30,30.23,10.0,Calm,Calm,-,N/A,,Clear,0,2013-05-31 22:53:00
4:53 PM,72.0,37.0,28,30.23,10.0,Variable,6.9,-,N/A,,Clear,0,2013-05-31 23:53:00
5:53 PM,71.1,35.1,27,30.22,10.0,NW,4.6,-,N/A,,Clear,310,2013-06-01 00:53:00
6:53 PM,71.1,35.1,27,30.21,10.0,WNW,5.8,-,N/A,,Clear,290,2013-06-01 01:53:00
7:53 PM,70.0,35.1,28,30.21,10.0,West,3.5,-,N/A,,Clear,280,2013-06-01 02:53:00
8:53 PM,64.0,42.1,45,30.21,10.0,Calm,Calm,-,N/A,,Clear,0,2013-06-01 03:53:00
9:53 PM,57.9,44.1,60,30.21,10.0,East,8.1,-,N/A,,Clear,90,2013-06-01 04:53:00
10:53 PM,57.0,44.1,62,30.22,10.0,East,8.1,-,N/A,,Clear,100,2013-06-01 05:53:00
11:53 PM,55.0,43.0,64,30.21,10.0,ENE,8.1,-,N/A,,Clear,70,2013-06-01 06:53:00